Tillbaka till svenska Fidonet
English   Information   Debug  
FILM   0/18
FNEWS_PUBLISH   4983
FN_SYSOP   42232
FN_SYSOP_OLD1   71952
FTP_FIDO   0/2
FTSC_PUBLIC   0/13976
FUNNY   0/4886
GENEALOGY.EUR   0/71
GET_INFO   105
GOLDED   0/408
HAM   1287/16711
HOLYSMOKE   0/6791
HOT_SITES   0/1
HTMLEDIT   0/71
HUB203   466
HUB_100   264
HUB_400   39
HUMOR   0/29
IC   0/2851
INTERNET   0/424
INTERUSER   0/3
IP_CONNECT   719
JAMNNTPD   0/233
JAMTLAND   0/47
KATTY_KORNER   0/41
LAN   0/16
LINUX-USER   0/19
LINUXHELP   0/1155
LINUX   0/22382
LINUX_BBS   0/957
mail   18.68
mail_fore_ok   249
MENSA   0/341
MODERATOR   0/102
MONTE   0/992
MOSCOW_OKLAHOMA   0/1245
MUFFIN   0/783
MUSIC   0/321
N203_STAT   938
N203_SYSCHAT   313
NET203   321
NET204   69
NET_DEV   0/10
NORD.ADMIN   0/101
NORD.CHAT   0/2572
NORD.FIDONET   189
NORD.HARDWARE   0/28
NORD.KULTUR   0/114
NORD.PROG   0/32
NORD.SOFTWARE   0/88
NORD.TEKNIK   0/58
NORD   0/453
OCCULT_CHAT   0/93
OS2BBS   0/787
OS2DOSBBS   0/580
OS2HW   0/42
OS2INET   0/37
OS2LAN   0/134
OS2PROG   0/36
OS2REXX   0/113
OS2USER-L   207
OS2   0/4831
OSDEBATE   0/18996
PASCAL   0/490
PERL   0/457
PHP   0/45
POINTS   0/405
POLITICS   0/29554
POL_INC   0/14731
PSION   103
R20_ADMIN   1133
R20_AMATORRADIO   0/2
R20_BEST_OF_FIDONET   16
R20_CHAT   0/897
R20_DEPP   0/3
R20_DEV   400
R20_ECHO2   1888
R20_ECHOPRES   0/35
R20_ESTAT   0/719
R20_FIDONETPROG...
...RAM.MYPOINT
  0/2
R20_FIDONETPROGRAM   0/22
R20_FIDONET   0/248
R20_FILEFIND   0/24
R20_FILEFOUND   0/22
R20_HIFI   0/3
R20_INFO2   3781
R20_INTERNET   0/12940
R20_INTRESSE   0/60
R20_INTR_KOM   0/99
R20_KANDIDAT.CHAT   42
R20_KANDIDAT   28
R20_KOM_DEV   112
R20_KONTROLL   0/13360
R20_KORSET   0/18
R20_LOKALTRAFIK   0/24
R20_MODERATOR   0/1852
R20_NC   76
R20_NET200   245
R20_NETWORK.OTH...
...ERNETS
  0/13
R20_OPERATIVSYS...
...TEM.LINUX
  0/44
R20_PROGRAMVAROR   0/1
R20_REC2NEC   534
R20_SFOSM   0/341
R20_SF   0/108
R20_SPRAK.ENGLISH   0/1
R20_SQUISH   107
R20_TEST   2
R20_WORST_OF_FIDONET   20
RAR   0/9
RA_MULTI   106
RA_UTIL   0/162
REGCON.EUR   0/2069
REGCON   0/13
SCIENCE   0/1206
SF   0/239
SHAREWARE_SUPPORT   0/5146
SHAREWRE   0/14
SIMPSONS   0/169
STATS_OLD1   0/2539.065
STATS_OLD2   0/2530
STATS_OLD3   0/2395.095
STATS_OLD4   0/1692.25
SURVIVOR   0/495
SYSOPS_CORNER   0/3
SYSOP   0/84
TAGLINES   0/112
TEAMOS2   0/4530
TECH   0/2617
TEST.444   0/105
TRAPDOOR   0/19
TREK   0/755
TUB   0/290
UFO   0/40
UNIX   0/1316
USA_EURLINK   0/102
USR_MODEMS   0/1
VATICAN   0/2740
VIETNAM_VETS   0/14
VIRUS   0/378
VIRUS_INFO   0/201
VISUAL_BASIC   0/473
WHITEHOUSE   0/5187
WIN2000   0/101
WIN32   0/30
WIN95   0/4291
WIN95_OLD1   0/70272
WINDOWS   0/1517
WWB_SYSOP   0/419
WWB_TECH   0/810
ZCC-PUBLIC   0/1
ZEC   4

 
4DOS   0/134
ABORTION   0/7
ALASKA_CHAT   0/506
ALLFIX_FILE   0/1313
ALLFIX_FILE_OLD1   0/7997
ALT_DOS   0/152
AMATEUR_RADIO   0/1039
AMIGASALE   0/14
AMIGA   0/331
AMIGA_INT   0/1
AMIGA_PROG   0/20
AMIGA_SYSOP   0/26
ANIME   0/15
ARGUS   0/924
ASCII_ART   0/340
ASIAN_LINK   0/651
ASTRONOMY   0/417
AUDIO   0/92
AUTOMOBILE_RACING   0/105
BABYLON5   0/17862
BAG   135
BATPOWER   0/361
BBBS.ENGLISH   0/382
BBSLAW   0/109
BBS_ADS   0/5290
BBS_INTERNET   0/507
BIBLE   0/3563
BINKD   0/1119
BINKLEY   0/215
BLUEWAVE   0/2173
CABLE_MODEMS   0/25
CBM   0/46
CDRECORD   0/66
CDROM   0/20
CLASSIC_COMPUTER   0/378
COMICS   0/15
CONSPRCY   0/899
COOKING   41996
COOKING_OLD1   0/24719
COOKING_OLD2   0/40862
COOKING_OLD3   0/37489
COOKING_OLD4   10809/35496
COOKING_OLD5   9370
C_ECHO   0/189
C_PLUSPLUS   0/31
DIRTY_DOZEN   0/201
DOORGAMES   0/2333
DOS_INTERNET   0/196
duplikat   6102
ECHOLIST   0/18295
EC_SUPPORT   0/318
ELECTRONICS   0/359
ELEKTRONIK.GER   1534
ENET.LINGUISTIC   0/13
ENET.POLITICS   0/4
ENET.SOFT   0/11701
ENET.SYSOP   34332
ENET.TALKS   0/32
ENGLISH_TUTOR   0/2000
EVOLUTION   0/1335
FDECHO   0/217
FDN_ANNOUNCE   4283/7068
FIDONEWS   25122
FIDONEWS_OLD1   0/49742
FIDONEWS_OLD2   0/35949
FIDONEWS_OLD3   0/30874
FIDONEWS_OLD4   0/37224
FIDO_SYSOP   12973
FIDO_UTIL   0/180
FILEFIND   0/209
FILEGATE   0/212
Möte HAM, 16711 texter
 lista första sista föregående nästa
Text 1074, 767 rader
Skriven 2006-06-22 23:00:56 av Amsat List (1:323/120.0)
Ärende: [keps] orb06173.amsa
============================
[keps] orb06173.amsa


SB KEPS @ AMSAT  $ORB06173.O
Orbital Elements  06173.OSCAR

HR AMSAT ORBITAL ELEMENTS FOR OSCAR SATELLITES
FROM WA5QGD FORT WORTH,TX June 22, 2006
Send SUBSCRIBE KEPS/UNSUBSCRIBE KEPS to majordomo@amsat.org only
BID: ORB06173.O
TO ALL RADIO AMATEURS BT

Satellite: AO-07
Catalog number: 07530
Epoch time:      06172.73550005
Element set:     610
Inclination:      101.5663 deg
RA of node:       215.5523 deg
Eccentricity:    0.0011787
Arg of perigee:   237.2934 deg
Mean anomaly:     122.6996 deg
Mean motion:   12.53571700 rev/day
Decay rate:       -2.8e-07 rev/day^2
Epoch rev:           44595
Checksum:              284

Satellite: AO-10
Catalog number: 14129
Epoch time:      06163.43066941
Element set:    0289
Inclination:      027.4150 deg
RA of node:       330.5459 deg
Eccentricity:    0.6032332
Arg of perigee:   292.6794 deg
Mean anomaly:     015.9067 deg
Mean motion:   02.05866459 rev/day
Decay rate:      -3.97e-06 rev/day^2
Epoch rev:           17295
Checksum:              319

Satellite: UO-11
Catalog number: 14781
Epoch time:      06173.59480709
Element set:     102
Inclination:      098.2052 deg
RA of node:       183.9264 deg
Eccentricity:    0.0008015
Arg of perigee:   247.9195 deg
Mean anomaly:     112.1173 deg
Mean motion:   14.79435097 rev/day
Decay rate:       1.49e-06 rev/day^2
Epoch rev:           19656
Checksum:              311

Satellite: RS-10/11
Catalog number: 18129
Epoch time:      06172.84965047
Element set:      20
Inclination:      082.9239 deg
RA of node:       324.7085 deg
Eccentricity:    0.0013439
Arg of perigee:   080.2816 deg
Mean anomaly:     279.9865 deg
Mean motion:   13.72775690 rev/day
Decay rate:        2.8e-07 rev/day^2
Epoch rev:           95179
Checksum:              337

Satellite: RS-15
Catalog number: 23439
Epoch time:      06172.89408891
Element set:    0963
Inclination:      064.8162 deg
RA of node:       229.6106 deg
Eccentricity:    0.0167603
Arg of perigee:   253.2152 deg
Mean anomaly:     105.0327 deg
Mean motion:   11.27552292 rev/day
Decay rate:       -3.9e-07 rev/day^2
Epoch rev:           47307
Checksum:              303

Satellite: FO-29
Catalog number: 24278
Epoch time:      06172.60709616
Element set:    0254
Inclination:      098.5085 deg
RA of node:       176.5219 deg
Eccentricity:    0.0350147
Arg of perigee:   298.4214 deg
Mean anomaly:     058.2048 deg
Mean motion:   13.52921394 rev/day
Decay rate:       -6.3e-07 rev/day^2
Epoch rev:           48614
Checksum:              322

Satellite: SO-33
Catalog number: 25509
Epoch time:      06173.47767209
Element set:     681
Inclination:      031.4277 deg
RA of node:       099.3904 deg
Eccentricity:    0.0354744
Arg of perigee:   162.8674 deg
Mean anomaly:     198.4272 deg
Mean motion:   14.28107691 rev/day
Decay rate:       -4.2e-07 rev/day^2
Epoch rev:           39979
Checksum:              347

Satellite: AO-40
Catalog number: 26609
Epoch time:      06173.10224691
Element set:     740
Inclination:      006.5613 deg
RA of node:       235.3696 deg
Eccentricity:    0.7951025
Arg of perigee:   172.9120 deg
Mean anomaly:     217.4063 deg
Mean motion:   01.25585612 rev/day
Decay rate:      -1.11e-06 rev/day^2
Epoch rev:            2591
Checksum:              275

Satellite: VO-52
Catalog number: 28650
Epoch time:      06172.78282248
Element set:    0359
Inclination:      097.8714 deg
RA of node:       245.7358 deg
Eccentricity:    0.0027132
Arg of perigee:   349.2291 deg
Mean anomaly:     010.8342 deg
Mean motion:   14.81133980 rev/day
Decay rate:       4.43e-06 rev/day^2
Epoch rev:           06106
Checksum:              307

/EX
SB KEPS @ AMSAT  $ORB06173.D
Orbital Elements  06173.MICROS

HR AMSAT ORBITAL ELEMENTS FOR THE MICROSATS
FROM WA5QGD FORT WORTH,TX June 22, 2006
Send SUBSCRIBE KEPS/UNSUBSCRIBE KEPS to majordomo@amsat.org only
BID: ORB06173.D
TO ALL RADIO AMATEURS BT

Satellite: AO-16
Catalog number: 20439
Epoch time:      06172.55231228
Element set:     775
Inclination:      098.1857 deg
RA of node:       182.2496 deg
Eccentricity:    0.0010667
Arg of perigee:   176.7117 deg
Mean anomaly:     183.4143 deg
Mean motion:   14.31724757 rev/day
Decay rate:       -1.7e-07 rev/day^2
Epoch rev:           85694
Checksum:              325

Satellite: WO-18
Catalog number: 20441
Epoch time:      06172.60838369
Element set:    0977
Inclination:      098.1857 deg
RA of node:       186.9206 deg
Eccentricity:    0.0011368
Arg of perigee:   177.0040 deg
Mean anomaly:     183.1211 deg
Mean motion:   14.31794993 rev/day
Decay rate:       -2.5e-07 rev/day^2
Epoch rev:           85701
Checksum:              317

Satellite: LO-19
Catalog number: 20442
Epoch time:      06172.65158926
Element set:    0715
Inclination:      098.1875 deg
RA of node:       191.8170 deg
Eccentricity:    0.0011680
Arg of perigee:   176.1603 deg
Mean anomaly:     183.9686 deg
Mean motion:   14.31967980 rev/day
Decay rate:        8.0e-08 rev/day^2
Epoch rev:           85709
Checksum:              336

Satellite: UO-22
Catalog number: 21575
Epoch time:      06172.49822266
Element set:    0731
Inclination:      098.2958 deg
RA of node:       130.0668 deg
Eccentricity:    0.0008348
Arg of perigee:   061.3679 deg
Mean anomaly:     298.8346 deg
Mean motion:   14.39553211 rev/day
Decay rate:       1.11e-06 rev/day^2
Epoch rev:           78363
Checksum:              324

Satellite: KO-23
Catalog number: 22077
Epoch time:      06173.73797990
Element set:     823
Inclination:      066.0843 deg
RA of node:       090.4226 deg
Eccentricity:    0.0001169
Arg of perigee:   006.9474 deg
Mean anomaly:     353.1569 deg
Mean motion:   12.86436948 rev/day
Decay rate:       -3.7e-07 rev/day^2
Epoch rev:           65125
Checksum:              325

